Weather reports worldwide

Advertisment
Baltasound, United Kingdom (3002): temperature & dewpoint: 24.09.2020 23:00:00 - 30.09.2020 23:00:00 (BST)Baltasound, United Kingdom (3002): temperature -20cm: 24.09.2020 23:00:00 - 30.09.2020 23:00:00 (BST)Baltasound, United Kingdom (3002): wind speed & gusts: 24.09.2020 23:00:00 - 30.09.2020 23:00:00 (BST)Baltasound, United Kingdom (3002): wind direction: 24.09.2020 23:00:00 - 30.09.2020 23:00:00 (BST)Baltasound, United Kingdom (3002): reduced air pressure: 24.09.2020 23:00:00 - 30.09.2020 23:00:00 (BST)Baltasound, United Kingdom (3002): visibility: 24.09.2020 23:00:00 - 30.09.2020 23:00:00 (BST)Baltasound, United Kingdom (3002): precipitation: 24.09.2020 23:00:00 - 30.09.2020 23:00:00 (BST)
Date & Time tt [°C] td [°C] tt -20cm [°C] ff [km/h] ff [kn] fx [km/h] fx [kn] dd ppp [hPa] vv [km] rr [mm]
30.09.2020 23:00:00 11,2 10,3 - 39 21 54 29 SE 999,9 5 -
30.09.2020 22:00:00 10,8 10,0 - 35 19 52 28 SSE 1000,2 5 1,4
30.09.2020 21:00:00 11,1 9,8 - 42 23 61 33 SSE 1000,4 7 0,8
30.09.2020 20:00:00 11,4 10,3 - 35 19 50 27 SSE 1000,3 8 0,2
30.09.2020 19:00:00 11,5 10,4 - 34 18 50 27 SSE 1000,4 10 0,4
30.09.2020 18:00:00 11,7 10,3 - 37 20 50 27 SE 1000,4 8 0,0
30.09.2020 17:00:00 11,6 10,2 - 39 21 55 30 SE 1000,5 7 0,2
30.09.2020 16:00:00 12,1 10,0 - 37 20 57 31 SE 1000,9 9 0,0
30.09.2020 15:00:00 12,3 9,6 - 39 21 57 31 SE 1001,1 13 0,0
30.09.2020 14:00:00 12,6 9,7 - 44 24 61 33 SSE 1001,2 15 0,0
30.09.2020 13:00:00 13,4 10,0 - 44 24 59 32 SE 1001,4 17 0,0
30.09.2020 12:00:00 12,1 9,5 - 42 23 59 32 SE 1002,2 16 0,0
30.09.2020 11:00:00 12,7 9,9 - 42 23 57 31 SE 1002,8 19 0,0
30.09.2020 10:00:00 12,1 9,4 - 44 24 57 31 SE 1003,6 21 0,0
30.09.2020 09:00:00 11,7 9,8 - 41 22 54 29 SE 1003,9 16 0,0
30.09.2020 08:00:00 11,0 9,5 - 39 21 52 28 SE 1004,5 18 0,0
30.09.2020 07:00:00 10,7 9,0 - 37 20 50 27 SE 1005,2 19 0,0
30.09.2020 06:00:00 10,6 8,8 - 31 17 - - SE 1005,8 19 0,0
30.09.2020 05:00:00 10,4 8,9 - 28 15 - - SE 1006,5 20 0,0
30.09.2020 04:00:00 10,4 8,4 - 28 15 - - SE 1007,6 28 0,0
30.09.2020 03:00:00 10,0 7,9 - 24 13 - - SSE 1008,5 30 0,0
30.09.2020 02:00:00 9,7 8,1 - 21 11 - - SSE 1009,3 30 0,0
30.09.2020 01:00:00 9,3 8,1 - 21 11 - - SSE 1009,9 24 0,0
30.09.2020 00:00:00 8,5 8,0 - 13 7 - - S 1010,4 17 0,0
29.09.2020 23:00:00 7,7 7,3 - 15 8 - - S 1011,2 17 0,0
29.09.2020 22:00:00 6,5 5,8 - 15 8 - - S 1011,7 14 0,0
29.09.2020 21:00:00 8,8 8,1 - 16 9 - - S 1012,0 16 0,0
29.09.2020 20:00:00 9,4 8,5 - 16 9 - - S 1012,4 19 0,0
29.09.2020 19:00:00 10,2 8,0 - 13 7 - - S 1012,4 24 0,0
29.09.2020 18:00:00 11,9 7,7 - 2 1 - - SW 1012,6 28 0,0
29.09.2020 17:00:00 12,2 8,2 - 5 3 - - W 1012,4 25 0,0
29.09.2020 16:00:00 12,5 8,5 - 8 4 - - W 1012,5 22 0,0
29.09.2020 15:00:00 13,8 8,4 - 13 7 - - SW 1012,6 22 0,0
29.09.2020 14:00:00 12,7 8,1 - 15 8 - - SSW 1012,9 22 0,0
29.09.2020 13:00:00 13,0 7,9 - 16 9 - - SW 1013,0 30 0,0
29.09.2020 12:00:00 12,6 8,1 - 18 10 - - SW 1013,1 15 0,0
29.09.2020 11:00:00 12,3 9,6 - 16 9 - - SSW 1013,2 29 0,0
29.09.2020 10:00:00 11,5 9,7 10,2 15 8 - - S 1013,2 23 0,0
29.09.2020 09:00:00 10,0 9,5 - 11 6 - - SW 1012,9 18 0,0
29.09.2020 08:00:00 7,2 6,8 - 16 9 - - SSW 1012,5 20 0,0
29.09.2020 07:00:00 7,3 7,0 - 16 9 - - SSW 1012,1 22 0,0
29.09.2020 06:00:00 6,0 5,4 - 16 9 - - SW 1011,6 30 0,0
29.09.2020 05:00:00 6,1 5,3 - 5 3 - - S 1011,3 18 0,0
29.09.2020 04:00:00 7,8 7,2 - 18 10 - - SW 1010,8 23 0,0
29.09.2020 03:00:00 9,5 8,8 - 21 11 - - SSW 1010,5 17 0,0
29.09.2020 02:00:00 9,7 9,1 - 16 9 - - S 1010,1 17 0,0
29.09.2020 01:00:00 10,0 9,1 - 18 10 - - S 1009,7 18 0,0
29.09.2020 00:00:00 9,2 8,5 - 18 10 - - SSW 1009,4 15 0,0
28.09.2020 23:00:00 9,0 7,9 - 16 9 - - SSW 1009,0 23 0,0
28.09.2020 22:00:00 9,1 7,4 - 15 8 - - SW 1008,5 18 0,0
28.09.2020 21:00:00 11,0 9,1 - 24 13 - - WSW 1007,9 15 0,0
28.09.2020 20:00:00 11,1 8,9 - 29 16 52 28 WSW 1007,2 27 0,0
28.09.2020 19:00:00 11,4 8,6 - 39 21 54 29 SW 1006,2 23 0,0
28.09.2020 18:00:00 12,7 10,4 - 31 17 48 26 SSW 1004,9 20 0,0
28.09.2020 17:00:00 11,8 9,9 - 31 17 52 28 S 1004,9 11 0,0
28.09.2020 16:00:00 11,6 9,4 - 37 20 52 28 S 1004,9 11 0,0
28.09.2020 15:00:00 11,7 8,9 - 39 21 57 31 S 1005,1 16 0,0
28.09.2020 14:00:00 11,6 8,5 - 39 21 59 32 S 1005,4 18 0,0
28.09.2020 13:00:00 11,6 8,9 - 37 20 52 28 S 1005,9 18 0,0
28.09.2020 12:00:00 11,7 9,2 - 39 21 50 27 S 1006,4 28 0,0
28.09.2020 11:00:00 11,1 8,7 - 28 15 46 25 S 1007,2 25 0,0
28.09.2020 10:00:00 10,8 9,0 10,2 31 17 48 26 S 1007,4 35 0,0
28.09.2020 09:00:00 10,0 9,2 - 34 18 46 25 SSE 1007,6 22 0,0
28.09.2020 08:00:00 9,5 8,9 - 28 15 - - SSE 1008,2 15 0,0
28.09.2020 07:00:00 9,2 8,5 - 28 15 - - S 1008,6 45 0,0
28.09.2020 06:00:00 8,8 8,2 - 22 12 - - S 1008,9 28 0,0
28.09.2020 05:00:00 8,8 8,0 - 21 11 - - S 1009,9 10 0,0
28.09.2020 04:00:00 8,9 7,8 - 16 9 - - S 1010,4 50 0,0
28.09.2020 03:00:00 8,6 7,9 - 15 8 - - S 1010,8 45 0,0
28.09.2020 02:00:00 8,5 8,0 - 11 6 - - S 1011,1 50 0,0
28.09.2020 01:00:00 8,0 7,7 - 8 4 - - S 1011,7 45 0,0
28.09.2020 00:00:00 7,9 7,5 - 8 4 - - SSW 1012,3 4,5 0,0
27.09.2020 23:00:00 7,2 6,9 - 9 5 - - SSW 1012,6 45 0,0
27.09.2020 22:00:00 4,9 4,4 - 8 4 - - S 1012,8 50 0,0
27.09.2020 21:00:00 5,3 4,7 - 8 4 - - SW 1013,0 35 0,0
27.09.2020 20:00:00 4,8 3,7 - 2 1 - - SSW 1013,1 40 0,0
27.09.2020 19:00:00 9,0 8,0 - 4 2 - - ESE 1013,3 7 0,0
27.09.2020 18:00:00 9,7 8,3 - 4 2 - - W 1013,4 20 0,0
27.09.2020 17:00:00 9,9 8,7 - 5 3 - - NNE 1013,6 14 0,0
27.09.2020 16:00:00 10,0 8,2 - 8 4 - - NNE 1014,1 13 0,0
27.09.2020 15:00:00 10,0 8,6 - 11 6 - - NNE 1014,6 13 0,0
27.09.2020 14:00:00 9,7 7,9 - 11 6 - - NE 1015,1 10 0,0
27.09.2020 13:00:00 9,4 8,0 - 13 7 - - NNE 1015,5 18 0,0
27.09.2020 12:00:00 9,4 7,4 - 16 9 - - NNE 1016,0 15 0,0
27.09.2020 11:00:00 9,4 6,9 - 18 10 - - NNE 1015,8 17 0,0
27.09.2020 10:00:00 9,2 6,2 - 21 11 - - NNE 1016,5 17 0,0
27.09.2020 09:00:00 8,9 5,9 - 22 12 - - NNE 1017,0 18 0,0
27.09.2020 08:00:00 8,6 5,3 - 22 12 - - NNE 1017,4 20 0,0
27.09.2020 07:00:00 8,3 4,8 - 22 12 - - NNE 1017,6 16 0,0
27.09.2020 06:00:00 8,2 4,3 - 22 12 - - NNE 1017,8 24 0,0
27.09.2020 05:00:00 8,4 4,5 - 21 11 - - NNE 1018,3 19 0,0
27.09.2020 04:00:00 8,3 4,6 - 22 12 - - N 1019,0 19 0,0
27.09.2020 03:00:00 8,2 4,6 - 26 14 - - NNE 1019,3 18 0,0
27.09.2020 02:00:00 7,9 3,8 - 29 16 - - NE 1019,7 20 0,0
27.09.2020 01:00:00 8,1 3,9 - 29 16 - - NNE 1020,4 23 0,0
27.09.2020 00:00:00 8,1 4,3 - 24 13 - - NNE 1020,8 20 0,0
26.09.2020 23:00:00 8,0 3,9 - 29 16 - - N 1020,8 21 0,0
26.09.2020 22:00:00 8,3 4,2 - 28 15 46 25 NNE 1020,7 19 0,0
26.09.2020 21:00:00 7,9 3,7 - 34 18 48 26 NNE 1020,8 19 0,0
26.09.2020 20:00:00 8,1 3,6 - 34 18 48 26 NNE 1020,8 17 0,0
26.09.2020 19:00:00 8,1 3,6 - 35 19 54 29 NNE 1020,8 20 0,0
26.09.2020 18:00:00 8,3 3,5 - 39 21 54 29 NNE 1020,4 20 0,0
26.09.2020 17:00:00 8,7 3,5 - 41 22 57 31 NNE 1019,9 24 0,0
26.09.2020 16:00:00 8,6 3,6 - 41 22 59 32 NNE 1020,0 24 0,0
26.09.2020 15:00:00 9,4 4,2 - 44 24 63 34 N 1019,7 23 0,0
26.09.2020 14:00:00 9,8 4,3 - 42 23 57 31 NNE 1019,9 30 0,0
26.09.2020 13:00:00 9,7 3,8 - 41 22 57 31 NNE 1019,7 23 0,0
26.09.2020 12:00:00 9,6 3,7 - 41 22 57 31 NNE 1019,4 28 0,0
26.09.2020 11:00:00 9,3 3,4 - 42 23 59 32 NNE 1019,1 35 0,0
26.09.2020 10:00:00 9,1 3,6 - 41 22 57 31 NNE 1018,6 20 0,0
26.09.2020 09:00:00 9,4 4,8 - 41 22 55 30 NNE 1017,9 23 0,0
26.09.2020 08:00:00 9,3 4,8 - 37 20 59 32 NNE 1017,1 15 0,0
26.09.2020 07:00:00 9,2 4,3 - 37 20 59 32 NNE 1016,4 21 0,0
26.09.2020 06:00:00 9,3 5,5 - 37 20 54 29 NNE 1015,7 15 0,0
26.09.2020 05:00:00 9,1 5,3 - 39 21 54 29 NNE 1015,2 22 0,0
26.09.2020 04:00:00 9,3 4,7 - 37 20 50 27 NNE 1014,7 21 0,0
26.09.2020 03:00:00 9,2 3,8 - 37 20 52 28 NNE 1014,1 35 0,0
26.09.2020 02:00:00 8,9 3,7 - 29 16 46 25 N 1013,9 29 0,0
26.09.2020 01:00:00 8,8 4,1 - 29 16 - - NNE 1013,7 27 0,0
26.09.2020 00:00:00 8,3 3,0 - 26 14 - - NNE 1013,5 30 0,0
25.09.2020 23:00:00 8,4 5,3 - 24 13 - - N 1012,9 30 0,0
25.09.2020 22:00:00 8,2 4,3 - 18 10 - - NNE 1012,7 28 0,0
25.09.2020 21:00:00 7,4 3,3 - 15 8 - - NNE 1012,7 40 0,0
25.09.2020 20:00:00 7,7 4,5 - 13 7 - - N 1012,1 30 0,0
25.09.2020 19:00:00 6,2 2,7 - 11 6 - - N 1011,4 45 0,0
25.09.2020 18:00:00 7,4 4,1 - 13 7 - - NNE 1010,8 45 0,0
25.09.2020 17:00:00 9,4 4,1 - 13 7 - - N 1010,7 40 0,0
25.09.2020 16:00:00 10,6 4,1 - 15 8 - - NW 1010,4 45 0,0
25.09.2020 15:00:00 10,4 4,6 - 15 8 - - NNW 1010,3 45 0,0
25.09.2020 14:00:00 10,4 6,0 - 13 7 - - NW 1010,1 35 0,0
25.09.2020 13:00:00 10,3 5,6 - 5 3 - - ENE 1009,9 30 1,0
25.09.2020 12:00:00 10,2 5,4 - 4 2 - - E 1009,9 30 8,6
25.09.2020 11:00:00 9,9 5,8 - 5 3 - - ENE 1009,3 30 0,0
25.09.2020 10:00:00 8,0 6,0 10,7 4 2 - - E 1008,7 30 0,0
25.09.2020 09:00:00 7,5 5,2 - 11 6 - - W 1008,3 7 0,0
25.09.2020 08:00:00 5,8 4,2 - 2 1 - - W 1007,4 30 0,0
25.09.2020 07:00:00 3,3 1,7 - 4 2 - - W 1006,7 26 0,0
25.09.2020 06:00:00 3,3 1,5 - 8 4 - - W 1006,1 35 0,0
25.09.2020 05:00:00 3,3 1,4 - 8 4 - - W 1005,4 30 0,0
25.09.2020 04:00:00 3,5 1,6 - 9 5 - - WNW 1004,7 30 0,0
25.09.2020 03:00:00 2,7 1,0 - 8 4 - - WNW 1004,2 30 0,0
25.09.2020 02:00:00 3,8 1,8 - 9 5 - - WNW 1003,5 23 0,0
25.09.2020 01:00:00 5,2 3,0 - 9 5 - - NW 1002,9 28 0,0
25.09.2020 00:00:00 4,9 2,2 - 8 4 - - NW 1002,3 25 0,0
24.09.2020 23:00:00 5,6 1,6 - 9 5 - - NW 1001,5 40 0,0

tt = temperature
td = dewpoint
tt -20cm = temperature -20cm
ff = wind speed
fx = gusts
dd = wind direction
ppp = reduced air pressure
vv = visibility
rr = precipitation

Next stations